Date,TemperatureHighF,TemperatureAvgF,TemperatureLowF,DewpointHighF,DewpointAvgF,DewpointLowF,HumidityHigh,HumidityAvg,HumidityLow,PressureMaxIn,PressureMinIn,WindSpeedMaxMPH,WindSpeedAvgMPH,GustSpeedMaxMPH,PrecipitationSumIn
2013-3-1,64.8,53.9,50.2,0.0,0.0,0.0,0,0,100,0.00,0.00,12,3,17,0.00
2013-3-2,62.8,50.3,37.7,0.0,0.0,0.0,0,0,100,0.00,0.00,12,4,15,0.00
2013-3-3,65.1,44.2,32.7,0.0,0.0,0.0,0,0,100,0.00,0.00,8,2,8,0.00
2013-3-4,63.6,44.0,29.3,0.0,0.0,0.0,0,0,100,0.00,0.00,11,2,13,0.00
2013-3-5,53.9,44.2,35.9,0.0,0.0,0.0,0,0,100,0.00,0.00,8,1,10,0.00
2013-3-6,44.8,41.9,39.9,0.0,0.0,0.0,0,0,100,0.00,0.00,10,2,12,0.00
2013-3-7,65.2,46.8,39.1,0.0,0.0,0.0,0,0,100,0.00,0.00,10,2,11,0.00
2013-3-8,64.3,45.9,33.9,0.0,0.0,0.0,0,0,100,0.00,0.00,10,2,12,0.00
2013-3-9,70.9,46.5,30.8,0.0,0.0,0.0,0,0,100,0.00,0.00,8,1,8,0.00
2013-3-10,52.0,43.4,35.9,0.0,0.0,0.0,0,0,100,0.00,0.00,6,2,7,0.00
2013-3-11,58.7,47.9,40.7,0.0,0.0,0.0,0,0,100,0.00,0.00,8,1,8,0.00
2013-3-12,58.7,52.0,47.2,0.0,0.0,0.0,0,0,100,0.00,0.00,13,4,16,0.00
2013-3-13,52.9,50.6,48.9,0.0,0.0,0.0,0,0,100,0.00,0.00,11,3,14,0.00
2013-3-14,56.3,50.7,47.1,0.0,0.0,0.0,0,0,100,0.00,0.00,10,3,11,0.00
2013-3-15,70.5,53.4,47.4,0.0,0.0,0.0,0,0,100,0.00,0.00,11,3,12,0.00
2013-3-16,59.3,47.3,38.4,0.0,0.0,0.0,0,0,100,0.00,0.00,15,4,22,0.00
2013-3-17,61.9,44.6,34.9,0.0,0.0,0.0,0,0,100,0.00,0.00,11,3,14,0.00
2013-3-18,66.9,46.2,37.2,0.0,0.0,0.0,0,0,100,0.00,0.00,13,4,16,0.00
2013-3-19,65.0,44.0,35.5,0.0,0.0,0.0,0,0,100,0.00,0.00,10,2,12,0.00
2013-3-20,60.3,47.2,37.6,0.0,0.0,0.0,0,0,100,0.00,0.00,18,5,22,0.00
2013-3-21,57.1,41.5,34.1,0.0,0.0,0.0,0,0,100,0.00,0.00,14,3,17,0.00
2013-3-22,61.8,41.9,31.1,0.0,0.0,0.0,0,0,100,0.00,0.00,8,2,10,0.00
2013-3-23,64.2,43.6,33.0,0.0,0.0,0.0,0,0,100,0.00,0.00,7,2,9,0.00
2013-3-24,64.1,43.2,28.6,0.0,0.0,0.0,0,0,100,0.00,0.00,7,1,8,0.00
2013-3-25,70.4,51.6,32.8,0.0,0.0,0.0,0,0,100,0.00,0.00,8,2,9,0.00
2013-3-26,71.7,54.3,45.2,0.0,0.0,0.0,0,0,100,0.00,0.00,7,2,8,0.00
2013-3-27,63.8,50.6,42.0,0.0,0.0,0.0,0,0,100,0.00,0.00,6,1,8,0.00
2013-3-28,75.2,53.9,41.2,0.0,0.0,0.0,0,0,100,0.00,0.00,6,1,7,0.00
2013-3-29,76.9,57.0,42.0,0.0,0.0,0.0,0,0,100,0.00,0.00,7,2,9,0.00
2013-3-30,72.7,55.5,41.5,0.0,0.0,0.0,0,0,100,0.00,0.00,11,3,13,0.00
2013-3-31,77.6,58.8,40.9,0.0,0.0,0.0,0,0,100,0.00,0.00,11,2,14,0.00